Theta_e
311 311 312 313 311 311 312 312 312 312 312 312 313 313 314 314 312 303 297 304 306 310 308 301 299 299 299 297 299 298 291 289 290 289 292 295 291 294 295 292 294 296 295 298 300
311 311 311 312 312 312 312 312 312 312 313 313 313 313 313 313 303 297 306 309 309 308 300 298 295 296 295 294 295 294 290 289 291 292 290 291 290 291 291 292 293 295 299 300 301
311 310 311 312 312 313 313 313 313 313 313 313 313 312 312 311 297 295 308 308 308 306 302 301 297 295 292 294 293 291 289 290 289 291 291 290 290 294 291 290 294 293 296 299 299
310 311 312 312 312 313 313 313 313 313 312 312 311 312 307 307 288 300 306 306 306 303 302 299 297 292 291 289 292 288 289 289 290 291 290 289 293 291 293 293 297 297 298 298 298
310 311 311 312 313 313 313 312 311 312 312 311 311 310 304 293 293 302 304 303 303 301 298 297 295 293 290 291 291 289 290 291 293 293 292 293 291 291 292 296 298 298 297 297 298
310 310 311 312 313 313 312 310 311 311 310 311 310 307 297 289 301 301 301 300 300 300 298 298 295 295 292 290 290 292 291 292 292 292 292 290 290 292 293 296 295 295 296 297 297
310 310 311 312 313 313 311 310 311 310 309 310 309 302 296 292 302 301 301 299 300 300 297 298 299 295 294 291 293 291 288 291 291 291 290 291 287 289 294 295 293 294 295 296 296
310 310 311 312 312 312 309 309 308 309 309 308 306 302 291 300 302 299 301 299 301 302 300 300 300 296 293 293 290 288 287 285 291 290 291 289 283 291 295 293 292 293 294 293 292
310 311 311 312 312 309 307 307 304 306 305 301 299 297 288 298 294 298 299 296 298 299 300 299 298 293 294 290 288 288 282 284 286 291 289 287 284 291 294 292 291 292 291 290 291
311 311 310 312 311 307 304 306 302 302 300 296 296 292 292 290 294 296 300 298 296 296 295 295 294 293 291 288 280 281 282 283 284 288 288 286 286 290 292 291 290 289 289 290 290
312 311 310 311 310 306 304 301 297 295 295 289 288 288 290 295 295 296 298 296 296 294 289 291 291 285 285 286 285 285 283 283 286 289 285 285 285 288 288 288 287 288 289 289 289
313 311 309 311 309 305 303 295 293 293 289 290 289 290 292 293 290 294 300 292 289 286 290 288 286 287 287 287 285 285 284 283 286 287 285 285 284 288 287 287 287 287 287 288 288
314 311 310 310 307 303 297 295 299 298 290 287 288 288 289 292 289 290 295 292 287 285 285 285 286 287 285 285 284 285 284 282 281 284 286 283 284 284 287 288 288 288 288 288 287
314 310 308 307 302 300 295 298 299 298 286 286 285 288 291 292 288 293 295 291 289 285 285 286 288 285 285 283 284 280 286 284 282 279 279 283 276 283 285 285 285 286 286 286 286
314 308 304 305 300 296 296 299 299 297 283 285 285 291 291 289 288 290 294 291 286 285 284 286 284 284 283 283 285 282 286 283 280 278 278 280 277 281 283 282 282 284 285 285 285
313 308 305 304 298 296 298 297 297 287 284 285 284 283 287 287 288 290 291 292 290 285 286 286 287 285 285 286 286 286 284 284 280 280 276 275 276 278 280 279 282 284 284 284 284
310 306 301 299 294 297 296 294 287 284 282 286 283 283 282 283 285 286 286 286 284 282 283 284 283 285 285 284 287 284 282 277 275 276 275 276 276 280 280 282 283 282 283 283 283
305 301 297 295 297 298 292 288 284 286 287 281 282 282 281 282 283 283 284 284 285 282 281 278 278 284 284 283 281 279 279 275 269 271 273 279 273 279 281 285 285 284 283 283 282
302 297 295 295 297 296 293 286 288 286 283 281 283 280 283 281 281 282 283 284 284 283 279 279 279 283 283 284 283 280 279 280 274 275 270 277 280 284 283 283 282 282 281 280 280
299 295 292 296 297 295 286 288 288 283 283 283 284 280 281 281 280 281 282 285 283 284 284 279 276 281 282 285 283 282 282 276 276 269 268 275 276 277 277 278 280 280 279 280 280
299 291 293 296 296 288 286 287 285 284 284 282 282 281 280 281 280 282 281 283 285 283 284 281 277 280 280 280 281 280 279 278 277 275 271 269 274 279 277 279 278 280 280 279 279
297 287 293 296 286 284 285 286 283 283 284 283 282 281 281 281 281 280 280 282 286 285 280 282 279 276 280 283 284 283 280 279 274 272 275 274 274 283 281 281 281 280 280 280 280
289 288 295 294 285 285 284 282 282 282 282 281 281 282 282 280 278 281 281 284 286 284 281 282 278 274 278 279 280 278 281 280 279 277 272 271 275 284 283 282 282 281 280 280 280
291 285 286 288 288 287 285 285 284 284 282 283 282 282 280 278 281 279 280 283 285 285 284 284 279 276 274 278 277 276 278 280 278 273 275 276 277 280 281 280 280 281 281 280 280
294 288 290 284 285 287 288 287 283 282 283 284 281 281 280 278 278 276 281 282 283 285 284 282 274 276 277 278 278 276 274 275 274 276 273 277 274 278 280 280 280 282 281 279 279
288 287 287 288 288 287 286 285 284 284 282 280 279 282 282 279 281 279 281 281 281 282 281 281 275 272 271 276 276 274 276 277 274 275 275 275 273 281 283 283 281 282 280 278 278
293 292 293 288 286 285 286 287 286 286 287 287 283 282 280 283 285 285 285 283 283 280 279 277 276 272 272 272 272 272 275 277 278 278 277 273 281 281 279 280 281 280 279 278 277
Wind_Speed
9 9 9 9 9 10 11 11 10 9 8 8 7 7 7 10 5 13 15 15 13 19 19 11 4 4 3 4 4 2 5 7 8 5 4 3 7 9 6 13 14 13 14 15 18
9 8 10 11 10 10 10 10 10 10 9 8 8 7 6 5 5 17 13 15 15 16 13 12 8 4 3 3 3 4 5 7 6 6 9 12 11 11 9 14 17 13 13 10 14
10 9 10 11 11 11 11 10 10 10 10 9 8 7 6 5 2 8 17 16 14 14 9 8 4 2 3 2 5 3 4 6 4 6 7 10 14 14 15 15 11 12 15 15 16
10 10 10 11 11 11 11 11 11 9 9 8 7 6 2 6 2 8 15 13 11 11 11 6 4 0 2 1 4 5 2 4 5 4 7 11 13 14 16 21 19 17 17 15 12
9 11 12 12 12 13 12 13 10 8 8 8 7 4 5 4 6 8 12 9 6 9 11 8 10 3 1 2 2 4 4 7 9 11 12 13 17 17 20 18 17 15 12 14 13
9 10 12 13 14 14 14 13 8 6 5 6 8 5 4 2 4 7 10 7 9 10 9 10 6 5 3 3 3 7 10 13 6 7 10 13 19 15 8 4 9 10 12 12 16
9 10 11 13 14 14 15 11 7 4 5 7 8 4 11 6 3 7 8 5 5 7 5 6 6 4 3 1 5 6 7 10 3 4 11 7 20 9 10 8 12 16 17 16 13
9 11 12 13 14 14 14 8 7 4 5 7 7 4 4 2 5 7 11 2 4 4 3 5 4 2 6 2 2 6 2 8 2 2 1 5 12 3 7 13 19 15 12 9 11
8 10 12 13 14 15 13 5 6 3 4 5 4 5 3 2 2 6 6 6 3 2 3 3 2 3 3 5 3 3 7 12 11 9 8 3 18 14 18 15 15 10 6 7 11
7 9 12 14 15 16 9 3 3 4 4 3 2 2 2 5 5 6 6 4 2 1 2 1 1 1 5 7 5 10 10 11 16 10 13 16 22 14 14 11 6 2 5 9 14
7 9 11 13 14 16 5 3 4 4 7 5 3 2 3 9 2 5 6 3 2 1 1 3 0 3 4 5 5 9 12 15 19 16 12 14 22 17 3 1 2 4 10 13 18
7 7 8 11 11 14 5 4 3 3 3 1 1 1 2 5 4 7 9 3 5 3 4 0 2 2 4 5 8 10 11 12 11 5 18 15 18 17 6 3 4 8 14 19 23
6 6 9 10 8 3 6 4 3 3 5 1 2 2 3 6 2 5 8 2 3 2 3 2 4 2 3 6 9 13 5 15 20 26 9 10 13 7 9 5 6 9 18 22 24
6 3 7 7 3 2 3 2 2 4 0 3 3 1 3 3 2 3 4 3 3 3 4 4 1 3 6 4 7 6 13 20 18 9 6 6 8 12 3 5 2 17 21 23 23
6 3 6 7 2 3 4 4 2 3 5 2 3 2 2 4 6 3 1 3 4 1 1 3 3 4 3 2 5 9 19 20 8 6 8 4 6 6 2 4 14 21 24 25 24
10 7 2 2 3 3 4 4 3 3 6 1 3 3 3 2 1 5 2 2 2 3 5 5 1 3 4 10 4 13 13 11 5 4 6 4 7 7 7 8 21 25 26 25 24
12 9 4 2 2 2 2 3 3 4 1 1 1 3 1 3 1 3 1 1 3 3 1 3 3 1 2 6 4 10 10 5 3 4 9 4 8 4 4 9 19 24 25 24 21
17 10 8 4 2 2 2 3 5 1 2 1 2 3 3 3 1 3 3 3 3 3 3 4 2 3 1 2 4 4 4 4 7 10 13 9 6 5 2 10 19 20 21 21 21
14 2 2 3 4 0 1 4 4 1 2 1 2 1 1 2 3 3 3 1 3 1 2 4 3 4 1 1 1 3 3 3 6 6 5 4 6 13 3 14 18 20 22 21 21
4 3 3 4 3 0 3 4 3 1 1 1 3 1 2 2 4 2 2 3 4 1 1 2 7 2 2 2 1 2 2 3 4 7 9 9 11 6 15 19 17 19 19 19 19
3 3 1 3 1 2 3 4 3 1 2 2 2 3 5 2 3 3 2 4 3 4 1 3 1 2 2 7 2 4 4 3 2 4 6 9 5 2 7 12 16 17 18 18 18
2 2 1 2 2 1 2 1 2 2 2 3 4 5 4 3 4 4 3 3 4 5 3 4 2 6 3 3 1 3 3 4 3 1 6 8 10 5 3 8 13 15 16 16 15
3 2 1 2 3 3 1 2 2 4 4 3 3 5 1 3 4 5 3 2 8 6 3 4 3 6 4 3 3 5 7 8 4 4 11 7 7 6 4 11 12 14 15 15 15
4 3 1 1 1 1 2 4 4 3 3 3 3 3 4 4 5 3 4 4 7 5 3 3 4 7 8 6 2 7 9 10 9 7 11 15 20 16 6 8 10 13 12 14 13
2 3 4 5 5 7 4 3 4 4 4 7 3 12 7 4 4 5 7 3 6 6 5 4 6 7 14 16 15 17 15 13 16 18 9 15 9 15 12 7 5 10 10 12 13
5 4 2 3 3 10 9 7 8 4 8 6 8 5 12 6 6 2 4 6 5 8 7 4 3 3 8 6 6 13 17 16 16 16 20 21 26 13 2 3 6 8 10 12 12
0 1 1 7 6 6 6 7 9 8 10 3 10 5 8 12 11 4 2 3 2 6 11 6 3 2 7 4 9 9 9 11 7 9 7 9 7 5 3 5 4 7 8 10 11
Wind_Direction
13 2 359 357 356 353 350 354 351 351 349 348 347 349 346 318 353 43 34 349 338 339 319 338 8 14 41 64 18 300 245 262 271 288 327 357 325 312 321 273 278 270 277 299 307
3 360 358 354 354 352 350 351 347 343 344 340 340 338 329 302 307 43 4 353 347 340 346 1 10 7 71 50 30 284 264 356 11 324 295 316 307 314 299 296 282 275 269 297 329
356 348 349 352 350 349 348 344 340 340 339 338 333 328 321 229 226 21 359 351 348 334 343 315 315 333 71 15 17 357 306 8 338 328 315 301 290 284 272 274 280 325 311 314 319
351 352 350 352 346 345 343 339 338 340 340 336 336 333 286 222 8 14 348 343 335 342 2 338 350 96 89 41 6 284 316 302 308 305 291 283 297 284 272 271 303 307 308 311 313
349 350 349 348 345 343 341 334 329 330 344 346 347 329 258 84 51 353 340 351 352 360 18 11 28 349 113 348 304 266 332 288 275 289 283 294 287 280 278 290 298 300 300 300 300
349 345 346 343 342 342 341 336 329 335 347 353 352 304 258 91 345 355 349 356 11 2 24 30 21 357 66 11 317 330 307 293 294 309 300 292 289 284 256 289 275 284 283 292 299
342 343 344 341 339 342 343 342 348 354 344 348 347 311 59 79 336 347 358 15 1 3 14 29 359 333 321 261 345 321 321 298 238 268 303 326 280 219 255 249 288 301 300 301 330
335 339 337 338 339 343 343 335 342 343 332 342 318 280 74 55 343 349 349 72 52 31 14 9 4 13 356 322 232 326 282 328 140 239 312 307 285 257 302 301 295 305 304 339 324
325 333 334 338 340 344 340 318 346 325 330 311 256 289 83 129 317 337 353 355 358 54 22 356 320 20 275 319 247 67 310 312 327 228 317 251 295 298 303 303 300 308 340 308 310
310 324 332 339 343 351 350 306 324 264 249 238 159 214 102 351 317 317 13 4 342 315 214 263 264 352 16 4 2 316 309 306 306 310 315 292 282 297 315 310 306 323 296 313 321
291 317 332 344 344 360 336 255 227 185 40 39 21 328 348 338 252 8 3 322 314 98 335 60 135 16 358 358 324 311 309 300 300 315 301 295 295 292 359 174 203 303 325 324 319
274 296 330 339 345 347 345 37 65 319 289 36 9 349 321 325 270 27 350 25 50 36 344 36 191 49 310 304 313 308 298 296 312 260 322 296 292 293 204 252 292 324 327 322 323
262 303 338 339 338 2 53 51 344 287 262 124 17 318 322 309 330 6 1 29 60 40 28 293 57 327 289 321 332 327 295 314 310 322 271 295 268 188 211 234 273 313 329 329 329
223 281 348 324 268 6 46 25 350 318 20 208 178 128 246 293 209 13 28 342 193 13 354 281 94 302 306 282 354 309 349 316 315 321 308 22 291 318 132 237 285 333 332 329 333
191 159 61 51 1 14 14 336 12 252 295 166 131 27 318 325 335 108 11 234 306 32 111 68 282 289 266 342 341 269 320 304 314 281 312 159 262 328 192 320 331 328 333 338 333
169 156 139 91 78 38 345 297 243 358 249 147 312 342 354 350 20 311 250 228 341 273 214 258 334 263 316 315 295 312 302 295 248 250 251 102 2 290 11 339 326 331 338 335 330
156 121 80 28 90 357 358 269 339 206 79 284 329 6 32 305 295 333 320 129 350 317 60 257 203 171 300 322 154 354 329 324 290 279 308 156 307 322 18 324 335 329 331 333 331
127 99 61 65 52 39 56 52 231 237 240 60 266 270 280 11 181 301 252 206 108 302 289 325 257 188 47 12 311 347 335 359 307 321 314 297 242 323 199 331 336 328 334 332 333
117 79 76 34 9 20 103 247 252 293 50 223 225 299 179 219 274 307 253 323 61 46 305 297 251 141 155 342 240 97 307 19 270 251 265 232 250 269 221 340 334 335 339 336 335
104 110 84 338 355 256 88 241 256 349 84 306 224 217 276 210 266 238 197 118 144 168 135 99 287 132 130 208 141 282 69 244 195 297 309 308 293 283 345 335 337 339 340 335 334
85 94 51 20 355 47 208 230 273 253 299 254 292 267 237 271 258 254 76 139 149 157 141 158 263 151 200 201 180 177 207 211 284 267 304 310 322 82 342 340 341 338 339 335 335
135 158 13 297 102 50 245 234 352 212 207 246 272 250 233 195 237 260 240 242 149 162 215 173 296 271 265 139 17 225 253 224 269 226 255 272 276 144 16 13 351 339 337 335 335
109 102 87 304 200 196 127 293 266 210 208 195 247 238 198 232 245 220 218 121 175 191 215 170 203 292 206 152 167 235 226 225 262 280 254 277 275 185 14 11 350 337 340 334 336
141 147 102 67 302 291 137 237 238 238 214 177 270 235 205 223 224 295 239 177 189 202 198 213 250 245 263 319 353 255 248 227 228 259 270 245 280 294 356 337 342 335 340 335 339
168 212 155 176 221 196 187 201 208 230 229 195 230 223 200 224 206 228 230 178 193 197 190 233 261 265 264 269 269 266 260 247 234 232 249 272 284 290 312 291 291 300 334 337 345
149 156 206 151 149 184 186 212 216 191 170 217 228 200 213 229 215 218 193 209 206 185 191 205 272 327 281 276 276 272 260 242 231 249 250 264 280 270 199 275 278 307 334 332 341
46 22 214 157 167 174 198 218 218 177 209 233 214 202 229 245 256 313 287 354 259 181 191 181 237 280 268 343 313 270 238 201 206 202 211 219 241 150 215 231 286 307 335 323 330